Time,TemperatureF,DewpointF,PressureIn,WindDirection,WindDirectionDegrees,WindSpeedMPH,WindSpeedGustMPH,Humidity,HourlyPrecipIn,Conditions,Clouds,dailyrainin,SoftwareType,DateUTC
2013-01-23 00:03:00,62.4,57.5,30.21,SSE,158,0.0,1.0,84,0.00,,,0.00,Wunderground v.1.15,2013-01-23 05:03:00,
2013-01-23 00:04:00,62.4,57.5,30.21,East,93,1.0,1.0,84,0.00,,,0.00,Wunderground v.1.15,2013-01-23 05:04:00,
2013-01-23 00:08:00,62.3,57.7,30.21,SE,125,0.0,1.0,85,0.00,,,0.00,Wunderground v.1.15,2013-01-23 05:08:00,
2013-01-23 00:13:00,62.3,57.7,30.21,East,101,1.0,1.0,85,0.00,,,0.00,Wunderground v.1.15,2013-01-23 05:13:00,
2013-01-23 00:54:00,62.1,57.5,30.21,East,82,0.0,1.0,85,0.00,,,0.00,Wunderground v.1.15,2013-01-23 05:54:00,
2013-01-23 00:56:00,62.1,57.5,30.21,East,87,0.0,1.0,85,0.00,,,0.00,Wunderground v.1.15,2013-01-23 05:56:00,
2013-01-23 01:01:00,62.1,57.5,30.22,East,86,0.0,0.0,85,0.00,,,0.00,Wunderground v.1.15,2013-01-23 06:01:00,
2013-01-23 01:07:00,62.2,57.6,30.22,East,99,0.0,0.0,85,0.00,,,0.00,Wunderground v.1.15,2013-01-23 06:07:00,
2013-01-23 01:12:00,62.3,57.4,30.21,ESE,117,1.0,1.0,84,0.00,,,0.00,Wunderground v.1.15,2013-01-23 06:12:00,
2013-01-23 01:17:00,62.4,57.5,30.22,East,98,0.0,1.0,84,0.00,,,0.00,Wunderground v.1.15,2013-01-23 06:17:00,
2013-01-23 01:22:00,62.4,57.5,30.22,East,99,0.0,0.0,84,0.00,,,0.00,Wunderground v.1.15,2013-01-23 06:22:00,
2013-01-23 01:27:00,62.5,57.6,30.22,East,97,0.0,0.0,84,0.00,,,0.00,Wunderground v.1.15,2013-01-23 06:27:00,
2013-01-23 01:32:00,62.6,57.4,30.21,East,94,1.0,1.0,83,0.00,,,0.00,Wunderground v.1.15,2013-01-23 06:32:00,
2013-01-23 01:38:00,62.8,57.6,30.21,East,101,0.0,1.0,83,0.00,,,0.00,Wunderground v.1.15,2013-01-23 06:38:00,
2013-01-23 01:43:00,62.8,57.6,30.21,East,96,0.0,1.0,83,0.00,,,0.00,Wunderground v.1.15,2013-01-23 06:43:00,
2013-01-23 01:48:00,63.0,57.8,30.21,ESE,102,0.0,1.0,83,0.00,,,0.00,Wunderground v.1.15,2013-01-23 06:48:00,
2013-01-23 01:53:00,63.1,57.5,30.21,East,98,0.0,0.0,82,0.00,,,0.00,Wunderground v.1.15,2013-01-23 06:53:00,
2013-01-23 01:58:00,63.2,57.6,30.21,East,101,0.0,0.0,82,0.00,,,0.00,Wunderground v.1.15,2013-01-23 06:58:00,
2013-01-23 02:03:00,63.2,57.6,30.21,East,101,0.0,0.0,82,0.00,,,0.00,Wunderground v.1.15,2013-01-23 07:03:00,
2013-01-23 02:08:00,63.3,57.7,30.21,ESE,102,0.0,1.0,82,0.00,,,0.00,Wunderground v.1.15,2013-01-23 07:08:00,
2013-01-23 02:13:00,63.3,57.4,30.21,East,100,2.0,3.0,81,0.00,,,0.00,Wunderground v.1.15,2013-01-23 07:13:00,
2013-01-23 02:18:00,63.7,57.1,30.21,ESE,103,0.0,3.0,79,0.00,,,0.00,Wunderground v.1.15,2013-01-23 07:18:00,
2013-01-23 02:23:00,64.7,56.2,30.21,ESE,104,0.0,5.0,74,0.00,,,0.00,Wunderground v.1.15,2013-01-23 07:23:00,
2013-01-23 02:28:00,65.9,56.2,30.21,East,101,0.0,6.0,71,0.00,,,0.00,Wunderground v.1.15,2013-01-23 07:28:00,
2013-01-23 02:34:00,66.9,56.4,30.22,ESE,108,0.0,6.0,69,0.00,,,0.00,Wunderground v.1.15,2013-01-23 07:34:00,
2013-01-23 02:39:00,67.4,56.5,30.22,East,93,1.0,8.0,68,0.00,,,0.00,Wunderground v.1.15,2013-01-23 07:39:00,
2013-01-23 02:44:00,67.5,55.7,30.22,ENE,73,3.0,9.0,66,0.00,,,0.00,Wunderground v.1.15,2013-01-23 07:44:00,
2013-01-23 02:49:00,67.8,56.0,30.22,East,95,0.0,9.0,66,0.00,,,0.00,Wunderground v.1.15,2013-01-23 07:49:00,
2013-01-23 02:54:00,67.8,55.6,30.22,East,84,4.0,7.0,65,0.00,,,0.00,Wunderground v.1.15,2013-01-23 07:54:00,
2013-01-23 02:59:00,67.9,55.7,30.22,East,95,3.0,8.0,65,0.00,,,0.00,Wunderground v.1.15,2013-01-23 07:59:00,
2013-01-23 03:04:00,67.8,55.6,30.22,ENE,77,1.0,7.0,65,0.00,,,0.00,Wunderground v.1.15,2013-01-23 08:04:00,
2013-01-23 03:09:00,67.8,55.6,30.22,East,99,3.0,7.0,65,0.00,,,0.00,Wunderground v.1.15,2013-01-23 08:09:00,
2013-01-23 03:14:00,67.7,55.5,30.22,East,91,4.0,4.0,65,0.00,,,0.00,Wunderground v.1.15,2013-01-23 08:14:00,
2013-01-23 03:19:00,67.7,55.1,30.22,East,86,0.0,5.0,64,0.00,,,0.00,Wunderground v.1.15,2013-01-23 08:19:00,
2013-01-23 03:24:00,67.7,55.1,30.22,East,93,0.0,4.0,64,0.00,,,0.00,Wunderground v.1.15,2013-01-23 08:24:00,
2013-01-23 03:29:00,67.7,55.1,30.22,East,86,3.0,4.0,64,0.00,,,0.00,Wunderground v.1.15,2013-01-23 08:29:00,
2013-01-23 03:34:00,67.5,54.9,30.22,East,84,3.0,3.0,64,0.00,,,0.00,Wunderground v.1.15,2013-01-23 08:34:00,
2013-01-23 03:39:00,67.4,54.8,30.21,East,89,0.0,4.0,64,0.00,,,0.00,Wunderground v.1.15,2013-01-23 08:39:00,
2013-01-23 03:44:00,67.2,55.0,30.21,East,96,2.0,5.0,65,0.00,,,0.00,Wunderground v.1.15,2013-01-23 08:44:00,
2013-01-23 03:49:00,67.1,54.9,30.21,East,90,1.0,5.0,65,0.00,,,0.00,Wunderground v.1.15,2013-01-23 08:49:00,
2013-01-23 03:54:00,66.9,54.7,30.21,East,92,0.0,4.0,65,0.00,,,0.00,Wunderground v.1.15,2013-01-23 08:54:00,
2013-01-23 03:59:00,66.9,54.3,30.20,East,86,1.0,4.0,64,0.00,,,0.00,Wunderground v.1.15,2013-01-23 08:59:00,
2013-01-23 04:04:00,67.0,54.4,30.20,East,82,3.0,4.0,64,0.00,,,0.00,Wunderground v.1.15,2013-01-23 09:04:00,
2013-01-23 04:09:00,67.1,54.1,30.21,East,89,0.0,5.0,63,0.00,,,0.00,Wunderground v.1.15,2013-01-23 09:09:00,
2013-01-23 04:15:00,67.3,54.7,30.21,East,91,0.0,5.0,64,0.00,,,0.00,Wunderground v.1.15,2013-01-23 09:15:00,
2013-01-23 04:20:00,67.2,54.6,30.21,East,91,0.0,1.0,64,0.00,,,0.00,Wunderground v.1.15,2013-01-23 09:20:00,
2013-01-23 04:25:00,67.2,55.0,30.21,East,95,0.0,2.0,65,0.00,,,0.00,Wunderground v.1.15,2013-01-23 09:25:00,
2013-01-23 04:30:00,67.1,54.9,30.21,East,89,2.0,2.0,65,0.00,,,0.00,Wunderground v.1.15,2013-01-23 09:30:00,
2013-01-23 04:35:00,67.1,55.4,30.21,East,92,2.0,2.0,66,0.00,,,0.00,Wunderground v.1.15,2013-01-23 09:35:00,
2013-01-23 04:40:00,67.2,55.5,30.21,East,91,1.0,1.0,66,0.00,,,0.00,Wunderground v.1.15,2013-01-23 09:40:00,
2013-01-23 04:45:00,67.2,55.5,30.21,East,94,0.0,4.0,66,0.00,,,0.00,Wunderground v.1.15,2013-01-23 09:45:00,
2013-01-23 04:50:00,67.3,55.5,30.21,East,94,1.0,1.0,66,0.00,,,0.00,Wunderground v.1.15,2013-01-23 09:50:00,
2013-01-23 04:55:00,67.3,55.5,30.21,East,99,1.0,3.0,66,0.00,,,0.00,Wunderground v.1.15,2013-01-23 09:55:00,
2013-01-23 05:00:00,67.2,55.5,30.21,East,93,3.0,3.0,66,0.00,,,0.00,Wunderground v.1.15,2013-01-23 10:00:00,
2013-01-23 05:05:00,67.2,55.5,30.21,East,93,1.0,4.0,66,0.00,,,0.00,Wunderground v.1.15,2013-01-23 10:05:00,
2013-01-23 05:10:00,67.1,55.4,30.21,East,91,0.0,1.0,66,0.00,,,0.00,Wunderground v.1.15,2013-01-23 10:10:00,
2013-01-23 05:15:00,67.1,55.8,30.21,East,92,0.0,2.0,67,0.00,,,0.00,Wunderground v.1.15,2013-01-23 10:15:00,
2013-01-23 05:20:00,66.9,55.6,30.21,East,89,2.0,3.0,67,0.00,,,0.00,Wunderground v.1.15,2013-01-23 10:20:00,
2013-01-23 05:25:00,67.0,55.3,30.21,East,87,1.0,5.0,66,0.00,,,0.00,Wunderground v.1.15,2013-01-23 10:25:00,
2013-01-23 05:30:00,67.1,55.4,30.22,East,91,1.0,1.0,66,0.00,,,0.00,Wunderground v.1.15,2013-01-23 10:30:00,
2013-01-23 05:35:00,67.1,55.4,30.22,East,89,1.0,5.0,66,0.00,,,0.00,Wunderground v.1.15,2013-01-23 10:35:00,
2013-01-23 05:40:00,67.1,55.4,30.22,East,90,2.0,2.0,66,0.00,,,0.00,Wunderground v.1.15,2013-01-23 10:40:00,
2013-01-23 05:45:00,67.2,55.5,30.22,East,94,1.0,6.0,66,0.00,,,0.00,Wunderground v.1.15,2013-01-23 10:45:00,
2013-01-23 05:50:00,67.3,55.1,30.23,East,88,2.0,3.0,65,0.00,,,0.00,Wunderground v.1.15,2013-01-23 10:50:00,
2013-01-23 05:55:00,67.3,55.1,30.23,East,83,3.0,4.0,65,0.00,,,0.00,Wunderground v.1.15,2013-01-23 10:55:00,
2013-01-23 06:00:00,67.3,55.1,30.23,East,86,2.0,2.0,65,0.00,,,0.00,Wunderground v.1.15,2013-01-23 11:00:00,
2013-01-23 06:05:00,67.3,55.1,30.23,East,94,0.0,4.0,65,0.00,,,0.00,Wunderground v.1.15,2013-01-23 11:05:00,
2013-01-23 06:10:00,67.3,55.1,30.23,East,92,2.0,2.0,65,0.00,,,0.00,Wunderground v.1.15,2013-01-23 11:10:00,
2013-01-23 06:15:00,67.2,55.0,30.23,East,84,3.0,5.0,65,0.00,,,0.00,Wunderground v.1.15,2013-01-23 11:15:00,
2013-01-23 06:20:00,67.4,55.2,30.24,East,94,0.0,1.0,65,0.00,,,0.00,Wunderground v.1.15,2013-01-23 11:20:00,
2013-01-23 06:25:00,67.3,55.1,30.24,East,91,0.0,4.0,65,0.00,,,0.00,Wunderground v.1.15,2013-01-23 11:25:00,
2013-01-23 06:30:00,67.3,55.1,30.24,East,92,0.0,1.0,65,0.00,,,0.00,Wunderground v.1.15,2013-01-23 11:30:00,
2013-01-23 06:35:00,67.2,54.6,30.24,East,91,0.0,3.0,64,0.00,,,0.00,Wunderground v.1.15,2013-01-23 11:35:00,
2013-01-23 06:40:00,67.1,56.2,30.24,East,93,0.0,1.0,68,0.00,,,0.00,Wunderground v.1.15,2013-01-23 11:40:00,
2013-01-23 06:45:00,66.4,57.5,30.23,East,90,1.0,1.0,73,0.00,,,0.00,Wunderground v.1.15,2013-01-23 11:45:00,
2013-01-23 06:50:00,65.5,57.7,30.24,East,96,0.0,0.0,76,0.00,,,0.00,Wunderground v.1.15,2013-01-23 11:50:00,
2013-01-23 06:55:00,64.8,57.8,30.24,East,101,0.0,1.0,78,0.00,,,0.00,Wunderground v.1.15,2013-01-23 11:55:00,
2013-01-23 07:00:00,64.3,57.6,30.25,East,101,0.0,0.0,79,0.00,,,0.00,Wunderground v.1.15,2013-01-23 12:00:00,
2013-01-23 07:05:00,63.9,57.6,30.25,East,96,0.0,1.0,80,0.00,,,0.00,Wunderground v.1.15,2013-01-23 12:05:00,
2013-01-23 07:10:00,63.7,57.8,30.25,East,98,0.0,0.0,81,0.00,,,0.00,Wunderground v.1.15,2013-01-23 12:10:00,
2013-01-23 07:15:00,63.5,57.6,30.25,East,97,0.0,0.0,81,0.00,,,0.00,Wunderground v.1.15,2013-01-23 12:15:00,
2013-01-23 07:20:00,63.4,57.8,30.26,ESE,107,0.0,0.0,82,0.00,,,0.00,Wunderground v.1.15,2013-01-23 12:20:00,
2013-01-23 07:25:00,63.3,57.7,30.26,East,101,0.0,0.0,82,0.00,,,0.00,Wunderground v.1.15,2013-01-23 12:25:00,
2013-01-23 07:30:00,63.2,57.9,30.26,ESE,104,0.0,0.0,83,0.00,,,0.00,Wunderground v.1.15,2013-01-23 12:30:00,
2013-01-23 07:35:00,63.2,57.9,30.26,ESE,103,0.0,0.0,83,0.00,,,0.00,Wunderground v.1.15,2013-01-23 12:35:00,
2013-01-23 07:40:00,63.1,57.9,30.26,East,98,0.0,0.0,83,0.00,,,0.00,Wunderground v.1.15,2013-01-23 12:40:00,
2013-01-23 07:45:00,63.1,57.9,30.26,East,96,0.0,0.0,83,0.00,,,0.00,Wunderground v.1.15,2013-01-23 12:45:00,
2013-01-23 07:50:00,63.1,57.9,30.26,East,95,0.0,0.0,83,0.00,,,0.00,Wunderground v.1.15,2013-01-23 12:50:00,
2013-01-23 07:55:00,63.0,57.4,30.27,East,92,0.0,0.0,82,0.00,,,0.00,Wunderground v.1.15,2013-01-23 12:55:00,
2013-01-23 08:01:00,63.1,57.9,30.26,East,100,0.0,0.0,83,0.00,,,0.00,Wunderground v.1.15,2013-01-23 13:01:00,
2013-01-23 08:06:00,63.1,57.5,30.27,East,101,0.0,0.0,82,0.00,,,0.00,Wunderground v.1.15,2013-01-23 13:06:00,
2013-01-23 08:11:00,63.2,57.6,30.27,East,79,0.0,0.0,82,0.00,,,0.00,Wunderground v.1.15,2013-01-23 13:11:00,
2013-01-23 08:16:00,63.2,57.6,30.27,East,98,0.0,0.0,82,0.00,,,0.00,Wunderground v.1.15,2013-01-23 13:16:00,
2013-01-23 08:21:00,63.3,57.7,30.27,East,82,0.0,2.0,82,0.00,,,0.00,Wunderground v.1.15,2013-01-23 13:21:00,
2013-01-23 08:26:00,63.4,57.5,30.28,East,81,0.0,3.0,81,0.00,,,0.00,Wunderground v.1.15,2013-01-23 13:26:00,
2013-01-23 08:31:00,63.4,57.8,30.28,ESE,110,0.0,1.0,82,0.00,,,0.00,Wunderground v.1.15,2013-01-23 13:31:00,
2013-01-23 08:36:00,63.4,57.8,30.28,East,92,0.0,2.0,82,0.00,,,0.00,Wunderground v.1.15,2013-01-23 13:36:00,
2013-01-23 08:41:00,63.5,57.9,30.28,East,96,0.0,1.0,82,0.00,,,0.00,Wunderground v.1.15,2013-01-23 13:41:00,
2013-01-23 08:46:00,63.6,58.0,30.29,East,93,0.0,3.0,82,0.00,,,0.00,Wunderground v.1.15,2013-01-23 13:46:00,
2013-01-23 08:51:00,63.9,58.0,30.29,East,97,0.0,1.0,81,0.00,,,0.00,Wunderground v.1.15,2013-01-23 13:51:00,
2013-01-23 08:56:00,64.3,58.0,30.29,East,93,0.0,2.0,80,0.00,,,0.00,Wunderground v.1.15,2013-01-23 13:56:00,
2013-01-23 09:01:00,64.9,58.2,30.29,East,92,0.0,1.0,79,0.00,,,0.00,Wunderground v.1.15,2013-01-23 14:01:00,
2013-01-23 09:06:00,65.2,58.2,30.29,East,94,0.0,4.0,78,0.00,,,0.00,Wunderground v.1.15,2013-01-23 14:06:00,
2013-01-23 09:11:00,65.6,58.2,30.29,East,95,0.0,1.0,77,0.00,,,0.00,Wunderground v.1.15,2013-01-23 14:11:00,
2013-01-23 09:16:00,66.1,57.9,30.29,East,92,1.0,3.0,75,0.00,,,0.00,Wunderground v.1.15,2013-01-23 14:16:00,
2013-01-23 09:21:00,66.5,58.7,30.29,East,99,0.0,1.0,76,0.00,,,0.00,Wunderground v.1.15,2013-01-23 14:21:00,
2013-01-23 09:26:00,67.2,58.2,30.30,East,98,0.0,5.0,73,0.00,,,0.00,Wunderground v.1.15,2013-01-23 14:26:00,
2013-01-23 09:31:00,67.4,58.1,30.30,East,96,0.0,2.0,72,0.00,,,0.00,Wunderground v.1.15,2013-01-23 14:31:00,
2013-01-23 09:36:00,67.3,58.0,30.31,East,97,0.0,4.0,72,0.00,,,0.00,Wunderground v.1.15,2013-01-23 14:36:00,
2013-01-23 09:41:00,67.3,58.3,30.31,East,89,1.0,1.0,73,0.00,,,0.00,Wunderground v.1.15,2013-01-23 14:41:00,
2013-01-23 09:46:00,67.6,58.6,30.31,East,101,0.0,3.0,73,0.00,,,0.00,Wunderground v.1.15,2013-01-23 14:46:00,
2013-01-23 09:51:00,67.9,58.1,30.30,East,93,0.0,3.0,71,0.00,,,0.00,Wunderground v.1.15,2013-01-23 14:51:00,
2013-01-23 09:56:00,67.9,58.1,30.30,East,89,1.0,5.0,71,0.00,,,0.00,Wunderground v.1.15,2013-01-23 14:56:00,
2013-01-23 10:01:00,67.9,58.1,30.31,East,87,1.0,3.0,71,0.00,,,0.00,Wunderground v.1.15,2013-01-23 15:01:00,
2013-01-23 10:06:00,67.9,58.5,30.30,East,98,0.0,3.0,72,0.00,,,0.00,Wunderground v.1.15,2013-01-23 15:06:00,
2013-01-23 10:11:00,68.0,58.2,30.31,ENE,72,2.0,2.0,71,0.00,,,0.00,Wunderground v.1.15,2013-01-23 15:11:00,
2013-01-23 10:16:00,68.2,58.0,30.31,ENE,77,1.0,4.0,70,0.00,,,0.00,Wunderground v.1.15,2013-01-23 15:16:00,
2013-01-23 10:21:00,68.1,57.9,30.31,East,82,1.0,3.0,70,0.00,,,0.00,Wunderground v.1.15,2013-01-23 15:21:00,
2013-01-23 10:26:00,68.1,58.3,30.31,East,84,2.0,5.0,71,0.00,,,0.00,Wunderground v.1.15,2013-01-23 15:26:00,
2013-01-23 10:31:00,68.6,58.4,30.31,East,96,0.0,1.0,70,0.00,,,0.00,Wunderground v.1.15,2013-01-23 15:31:00,
2013-01-23 10:36:00,69.0,58.0,30.31,ENE,75,1.0,5.0,68,0.00,,,0.00,Wunderground v.1.15,2013-01-23 15:36:00,
2013-01-23 10:41:00,69.0,58.0,30.31,East,84,4.0,5.0,68,0.00,,,0.00,Wunderground v.1.15,2013-01-23 15:41:00,
2013-01-23 10:46:00,69.0,58.0,30.31,ENE,76,0.0,5.0,68,0.00,,,0.00,Wunderground v.1.15,2013-01-23 15:46:00,
2013-01-23 10:51:00,69.3,58.7,30.31,ENE,63,4.0,4.0,69,0.00,,,0.00,Wunderground v.1.15,2013-01-23 15:51:00,
2013-01-23 10:56:00,69.8,59.2,30.31,East,90,0.0,4.0,69,0.00,,,0.00,Wunderground v.1.15,2013-01-23 15:56:00,
2013-01-23 11:01:00,70.2,59.1,30.31,ENE,75,1.0,2.0,68,0.00,,,0.00,Wunderground v.1.15,2013-01-23 16:01:00,
2013-01-23 11:06:00,70.4,59.3,30.31,East,88,0.0,4.0,68,0.00,,,0.00,Wunderground v.1.15,2013-01-23 16:06:00,
2013-01-23 11:11:00,70.7,58.8,30.31,ESE,106,1.0,3.0,66,0.00,,,0.00,Wunderground v.1.15,2013-01-23 16:11:00,
2013-01-23 11:16:00,71.4,59.4,30.30,East,82,2.0,4.0,66,0.00,,,0.00,Wunderground v.1.15,2013-01-23 16:16:00,
2013-01-23 11:21:00,71.8,60.2,30.30,ESE,106,0.0,2.0,67,0.00,,,0.00,Wunderground v.1.15,2013-01-23 16:21:00,
2013-01-23 11:26:00,72.5,59.6,30.29,East,89,0.0,3.0,64,0.00,,,0.00,Wunderground v.1.15,2013-01-23 16:26:00,
2013-01-23 11:32:00,72.9,60.0,30.30,East,82,2.0,3.0,64,0.00,,,0.00,Wunderground v.1.15,2013-01-23 16:32:00,
2013-01-23 11:37:00,72.6,59.3,30.30,East,91,0.0,3.0,63,0.00,,,0.00,Wunderground v.1.15,2013-01-23 16:37:00,
2013-01-23 11:42:00,72.3,59.4,30.29,ENE,67,2.0,4.0,64,0.00,,,0.00,Wunderground v.1.15,2013-01-23 16:42:00,
2013-01-23 11:47:00,72.5,59.6,30.28,East,79,3.0,5.0,64,0.00,,,0.00,Wunderground v.1.15,2013-01-23 16:47:00,
2013-01-23 11:52:00,72.5,58.7,30.28,East,87,3.0,8.0,62,0.00,,,0.00,Wunderground v.1.15,2013-01-23 16:52:00,
2013-01-23 11:57:00,72.2,59.3,30.28,East,84,0.0,8.0,64,0.00,,,0.00,Wunderground v.1.15,2013-01-23 16:57:00,
2013-01-23 12:02:00,72.7,59.4,30.27,SSE,166,0.0,4.0,63,0.00,,,0.00,Wunderground v.1.15,2013-01-23 17:02:00,
2013-01-23 12:07:00,73.3,58.1,30.27,ENE,58,9.0,10.0,59,0.00,,,0.00,Wunderground v.1.15,2013-01-23 17:07:00,
2013-01-23 12:12:00,73.3,56.7,30.27,North,354,7.0,7.0,56,0.00,,,0.00,Wunderground v.1.15,2013-01-23 17:12:00,
2013-01-23 12:17:00,73.5,56.8,30.27,ENE,73,5.0,13.0,56,0.00,,,0.00,Wunderground v.1.15,2013-01-23 17:17:00,
2013-01-23 12:22:00,73.8,56.6,30.27,ENE,64,1.0,6.0,55,0.00,,,0.00,Wunderground v.1.15,2013-01-23 17:22:00,
2013-01-23 12:27:00,74.0,56.3,30.26,East,98,3.0,12.0,54,0.00,,,0.00,Wunderground v.1.15,2013-01-23 17:27:00,
2013-01-23 12:32:00,74.2,55.4,30.27,East,101,11.0,13.0,52,0.00,,,0.00,Wunderground v.1.15,2013-01-23 17:32:00,
2013-01-23 12:37:00,74.4,56.2,30.27,ENE,60,5.0,13.0,53,0.00,,,0.00,Wunderground v.1.15,2013-01-23 17:37:00,
2013-01-23 12:42:00,74.6,55.8,30.27,East,89,4.0,9.0,52,0.00,,,0.00,Wunderground v.1.15,2013-01-23 17:42:00,
2013-01-23 12:47:00,74.8,56.0,30.26,ENE,75,2.0,9.0,52,0.00,,,0.00,Wunderground v.1.15,2013-01-23 17:47:00,
2013-01-23 12:52:00,74.9,56.1,30.26,ENE,64,4.0,7.0,52,0.00,,,0.00,Wunderground v.1.15,2013-01-23 17:52:00,
2013-01-23 12:57:00,74.5,55.2,30.26,NNE,31,2.0,11.0,51,0.00,,,0.00,Wunderground v.1.15,2013-01-23 17:57:00,
2013-01-23 13:02:00,74.2,54.9,30.26,ENE,74,1.0,11.0,51,0.00,,,0.00,Wunderground v.1.15,2013-01-23 18:02:00,
2013-01-23 13:07:00,74.6,55.8,30.25,NE,56,2.0,11.0,52,0.00,,,0.00,Wunderground v.1.15,2013-01-23 18:07:00,
2013-01-23 13:12:00,74.3,55.5,30.25,NE,53,2.0,10.0,52,0.00,,,0.00,Wunderground v.1.15,2013-01-23 18:12:00,
2013-01-23 13:17:00,73.8,55.6,30.25,ESE,106,1.0,13.0,53,0.00,,,0.00,Wunderground v.1.15,2013-01-23 18:17:00,
2013-01-23 13:22:00,73.8,55.6,30.25,NNW,347,2.0,11.0,53,0.00,,,0.00,Wunderground v.1.15,2013-01-23 18:22:00,
2013-01-23 13:27:00,73.2,55.6,30.24,NE,41,1.0,11.0,54,0.00,,,0.00,Wunderground v.1.15,2013-01-23 18:27:00,
2013-01-23 13:32:00,73.4,55.2,30.24,East,81,12.0,13.0,53,0.00,,,0.00,Wunderground v.1.15,2013-01-23 18:32:00,
2013-01-23 13:37:00,73.5,56.3,30.24,East,89,8.0,14.0,55,0.00,,,0.00,Wunderground v.1.15,2013-01-23 18:37:00,
2013-01-23 13:42:00,74.1,55.9,30.24,East,79,3.0,10.0,53,0.00,,,0.00,Wunderground v.1.15,2013-01-23 18:42:00,
2013-01-23 13:47:00,74.3,55.5,30.24,East,79,3.0,10.0,52,0.00,,,0.00,Wunderground v.1.15,2013-01-23 18:47:00,
2013-01-23 13:52:00,74.4,56.2,30.24,East,88,0.0,10.0,53,0.00,,,0.00,Wunderground v.1.15,2013-01-23 18:52:00,
2013-01-23 13:57:00,74.7,55.9,30.24,ENE,75,4.0,12.0,52,0.00,,,0.00,Wunderground v.1.15,2013-01-23 18:57:00,
2013-01-23 14:02:00,74.9,56.1,30.24,ENE,72,5.0,10.0,52,0.00,,,0.00,Wunderground v.1.15,2013-01-23 19:02:00,
2013-01-23 14:07:00,73.9,56.2,30.24,ENE,76,3.0,10.0,54,0.00,,,0.00,Wunderground v.1.15,2013-01-23 19:07:00,
2013-01-23 14:12:00,73.7,55.5,30.25,NE,53,2.0,9.0,53,0.00,,,0.00,Wunderground v.1.15,2013-01-23 19:12:00,
2013-01-23 14:17:00,73.1,56.0,30.25,East,91,2.0,9.0,55,0.00,,,0.00,Wunderground v.1.15,2013-01-23 19:17:00,
2013-01-23 14:22:00,74.0,56.3,30.25,ENE,67,3.0,9.0,54,0.00,,,0.00,Wunderground v.1.15,2013-01-23 19:22:00,
2013-01-23 14:27:00,74.3,56.1,30.24,East,96,2.0,9.0,53,0.00,,,0.00,Wunderground v.1.15,2013-01-23 19:27:00,
2013-01-23 14:32:00,74.5,55.7,30.24,ENE,61,6.0,10.0,52,0.00,,,0.00,Wunderground v.1.15,2013-01-23 19:32:00,
2013-01-23 14:37:00,73.8,55.6,30.24,East,84,6.0,10.0,53,0.00,,,0.00,Wunderground v.1.15,2013-01-23 19:37:00,
2013-01-23 14:42:00,74.1,56.4,30.24,ENE,66,0.0,8.0,54,0.00,,,0.00,Wunderground v.1.15,2013-01-23 19:42:00,
2013-01-23 14:47:00,73.7,55.5,30.24,ENE,70,0.0,9.0,53,0.00,,,0.00,Wunderground v.1.15,2013-01-23 19:47:00,
2013-01-23 14:52:00,73.3,56.7,30.24,ENE,61,4.0,5.0,56,0.00,,,0.00,Wunderground v.1.15,2013-01-23 19:52:00,
2013-01-23 14:57:00,73.8,56.6,30.24,ENE,70,5.0,10.0,55,0.00,,,0.00,Wunderground v.1.15,2013-01-23 19:57:00,
2013-01-23 15:02:00,74.2,56.0,30.24,NE,39,1.0,6.0,53,0.00,,,0.00,Wunderground v.1.15,2013-01-23 20:02:00,
2013-01-23 15:07:00,74.4,56.2,30.24,East,79,4.0,12.0,53,0.00,,,0.00,Wunderground v.1.15,2013-01-23 20:07:00,
2013-01-23 15:12:00,74.4,56.7,30.24,NNE,32,1.0,7.0,54,0.00,,,0.00,Wunderground v.1.15,2013-01-23 20:12:00,
2013-01-23 15:17:00,74.4,56.7,30.24,ESE,108,4.0,10.0,54,0.00,,,0.00,Wunderground v.1.15,2013-01-23 20:17:00,
2013-01-23 15:22:00,74.6,56.3,30.24,NE,56,5.0,8.0,53,0.00,,,0.00,Wunderground v.1.15,2013-01-23 20:22:00,
2013-01-23 15:27:00,74.4,56.2,30.24,North,8,3.0,11.0,53,0.00,,,0.00,Wunderground v.1.15,2013-01-23 20:27:00,
2013-01-23 15:32:00,74.3,56.6,30.24,East,98,3.0,4.0,54,0.00,,,0.00,Wunderground v.1.15,2013-01-23 20:32:00,
2013-01-23 15:37:00,74.9,57.1,30.24,ENE,62,3.0,6.0,54,0.00,,,0.00,Wunderground v.1.15,2013-01-23 20:37:00,
2013-01-23 15:42:00,74.6,55.8,30.24,East,82,2.0,9.0,52,0.00,,,0.00,Wunderground v.1.15,2013-01-23 20:42:00,
2013-01-23 15:47:00,73.7,55.5,30.24,ENE,75,3.0,9.0,53,0.00,,,0.00,Wunderground v.1.15,2013-01-23 20:47:00,
2013-01-23 15:52:00,73.2,55.6,30.24,NE,48,4.0,8.0,54,0.00,,,0.00,Wunderground v.1.15,2013-01-23 20:52:00,
2013-01-23 15:57:00,73.6,55.4,30.25,ENE,58,1.0,8.0,53,0.00,,,0.00,Wunderground v.1.15,2013-01-23 20:57:00,
2013-01-23 16:02:00,73.8,55.6,30.25,ENE,68,0.0,7.0,53,0.00,,,0.00,Wunderground v.1.15,2013-01-23 21:02:00,
2013-01-23 16:07:00,74.1,56.4,30.25,East,84,2.0,7.0,54,0.00,,,0.00,Wunderground v.1.15,2013-01-23 21:07:00,
2013-01-23 16:12:00,74.5,56.2,30.24,ENE,72,1.0,11.0,53,0.00,,,0.00,Wunderground v.1.15,2013-01-23 21:12:00,
2013-01-23 16:17:00,73.7,55.5,30.25,NNE,31,3.0,11.0,53,0.00,,,0.00,Wunderground v.1.15,2013-01-23 21:17:00,
2013-01-23 16:22:00,72.7,55.1,30.25,NE,56,5.0,9.0,54,0.00,,,0.00,Wunderground v.1.15,2013-01-23 21:22:00,
2013-01-23 16:28:00,72.8,54.7,30.25,East,84,0.0,9.0,53,0.00,,,0.00,Wunderground v.1.15,2013-01-23 21:28:00,
2013-01-23 16:33:00,73.3,55.6,30.25,East,85,0.0,8.0,54,0.00,,,0.00,Wunderground v.1.15,2013-01-23 21:33:00,
2013-01-23 16:38:00,73.6,54.9,30.25,ENE,75,0.0,8.0,52,0.00,,,0.00,Wunderground v.1.15,2013-01-23 21:38:00,
2013-01-23 16:43:00,73.7,56.0,30.25,NE,53,0.0,5.0,54,0.00,,,0.00,Wunderground v.1.15,2013-01-23 21:43:00,
2013-01-23 16:48:00,73.0,54.3,30.25,NE,44,4.0,10.0,52,0.00,,,0.00,Wunderground v.1.15,2013-01-23 21:48:00,
2013-01-23 16:53:00,72.1,54.5,30.25,ESE,102,3.0,9.0,54,0.00,,,0.00,Wunderground v.1.15,2013-01-23 21:53:00,
2013-01-23 16:58:00,71.6,54.6,30.25,ENE,72,4.0,9.0,55,0.00,,,0.00,Wunderground v.1.15,2013-01-23 21:58:00,
2013-01-23 17:03:00,71.6,54.1,30.25,East,94,4.0,7.0,54,0.00,,,0.00,Wunderground v.1.15,2013-01-23 22:03:00,
2013-01-23 17:08:00,71.9,55.3,30.25,East,79,3.0,8.0,56,0.00,,,0.00,Wunderground v.1.15,2013-01-23 22:08:00,
2013-01-23 17:13:00,72.1,55.0,30.25,NE,48,0.0,6.0,55,0.00,,,0.00,Wunderground v.1.15,2013-01-23 22:13:00,
2013-01-23 17:19:00,72.0,55.4,30.25,East,79,1.0,7.0,56,0.00,,,0.00,Wunderground v.1.15,2013-01-23 22:19:00,
2013-01-23 17:24:00,71.7,55.2,30.25,NNE,32,0.0,9.0,56,0.00,,,0.00,Wunderground v.1.15,2013-01-23 22:24:00,
2013-01-23 17:29:00,71.5,55.5,30.25,ENE,67,0.0,9.0,57,0.00,,,0.00,Wunderground v.1.15,2013-01-23 22:29:00,
2013-01-23 17:34:00,71.1,55.1,30.25,ENE,70,1.0,9.0,57,0.00,,,0.00,Wunderground v.1.15,2013-01-23 22:34:00,
2013-01-23 17:39:00,70.7,54.7,30.25,ENE,59,2.0,9.0,57,0.00,,,0.00,Wunderground v.1.15,2013-01-23 22:39:00,
2013-01-23 17:44:00,70.4,54.9,30.25,ENE,77,0.0,7.0,58,0.00,,,0.00,Wunderground v.1.15,2013-01-23 22:44:00,
2013-01-23 17:49:00,70.1,55.1,30.25,ENE,68,2.0,7.0,59,0.00,,,0.00,Wunderground v.1.15,2013-01-23 22:49:00,
2013-01-23 17:55:00,69.7,55.2,30.25,East,82,3.0,7.0,60,0.00,,,0.00,Wunderground v.1.15,2013-01-23 22:55:00,
2013-01-23 18:00:00,69.5,55.0,30.26,NE,47,0.0,2.0,60,0.00,,,0.00,Wunderground v.1.15,2013-01-23 23:00:00,
2013-01-23 18:05:00,69.3,54.8,30.26,East,84,1.0,6.0,60,0.00,,,0.00,Wunderground v.1.15,2013-01-23 23:05:00,
2013-01-23 18:10:00,69.1,54.6,30.26,ENE,68,1.0,1.0,60,0.00,,,0.00,Wunderground v.1.15,2013-01-23 23:10:00,
2013-01-23 18:15:00,68.9,54.9,30.26,ENE,72,2.0,4.0,61,0.00,,,0.00,Wunderground v.1.15,2013-01-23 23:15:00,
2013-01-23 18:20:00,68.7,54.7,30.26,ENE,66,0.0,0.0,61,0.00,,,0.00,Wunderground v.1.15,2013-01-23 23:20:00,
2013-01-23 18:25:00,68.4,54.9,30.26,East,96,1.0,1.0,62,0.00,,,0.00,Wunderground v.1.15,2013-01-23 23:25:00,
2013-01-23 18:30:00,68.2,54.7,30.26,ENE,66,0.0,0.0,62,0.00,,,0.00,Wunderground v.1.15,2013-01-23 23:30:00,
2013-01-23 18:35:00,68.1,55.0,30.26,East,86,0.0,2.0,63,0.00,,,0.00,Wunderground v.1.15,2013-01-23 23:35:00,
2013-01-23 18:40:00,67.9,54.8,30.26,East,79,0.0,0.0,63,0.00,,,0.00,Wunderground v.1.15,2013-01-23 23:40:00,
2013-01-23 18:45:00,67.7,54.6,30.26,East,87,0.0,1.0,63,0.00,,,0.00,Wunderground v.1.15,2013-01-23 23:45:00,
2013-01-23 18:50:00,67.5,54.9,30.26,East,86,0.0,0.0,64,0.00,,,0.00,Wunderground v.1.15,2013-01-23 23:50:00,
2013-01-23 18:55:00,67.4,54.8,30.26,ENE,72,0.0,1.0,64,0.00,,,0.00,Wunderground v.1.15,2013-01-23 23:55:00,
2013-01-23 19:00:00,67.2,54.6,30.26,East,82,0.0,0.0,64,0.00,,,0.00,Wunderground v.1.15,2013-01-24 00:00:00,
2013-01-23 19:05:00,67.0,54.4,30.27,East,82,0.0,0.0,64,0.00,,,0.00,Wunderground v.1.15,2013-01-24 00:05:00,
2013-01-23 19:10:00,66.6,54.5,30.27,East,82,0.0,0.0,65,0.00,,,0.00,Wunderground v.1.15,2013-01-24 00:10:00,
2013-01-23 19:15:00,66.1,54.4,30.27,East,82,0.0,0.0,66,0.00,,,0.00,Wunderground v.1.15,2013-01-24 00:15:00,
2013-01-23 19:20:00,65.8,54.5,30.27,East,82,0.0,0.0,67,0.00,,,0.00,Wunderground v.1.15,2013-01-24 00:20:00,
2013-01-23 19:25:00,65.5,54.7,30.27,East,82,0.0,0.0,68,0.00,,,0.00,Wunderground v.1.15,2013-01-24 00:25:00,
2013-01-23 19:30:00,65.2,54.4,30.27,East,82,0.0,0.0,68,0.00,,,0.00,Wunderground v.1.15,2013-01-24 00:30:00,
2013-01-23 19:35:00,64.8,54.4,30.27,East,82,0.0,0.0,69,0.00,,,0.00,Wunderground v.1.15,2013-01-24 00:35:00,
2013-01-23 19:40:00,64.6,54.6,30.27,East,82,0.0,0.0,70,0.00,,,0.00,Wunderground v.1.15,2013-01-24 00:40:00,
2013-01-23 19:45:00,64.3,54.3,30.27,East,82,0.0,0.0,70,0.00,,,0.00,Wunderground v.1.15,2013-01-24 00:45:00,
2013-01-23 19:50:00,64.0,54.8,30.27,East,82,0.0,0.0,72,0.00,,,0.00,Wunderground v.1.15,2013-01-24 00:50:00,
2013-01-23 19:55:00,63.8,54.6,30.27,East,82,0.0,0.0,72,0.00,,,0.00,Wunderground v.1.15,2013-01-24 00:55:00,
2013-01-23 20:00:00,63.5,54.7,30.27,East,82,0.0,0.0,73,0.00,,,0.00,Wunderground v.1.15,2013-01-24 01:00:00,
2013-01-23 20:05:00,63.2,54.4,30.28,East,82,0.0,0.0,73,0.00,,,0.00,Wunderground v.1.15,2013-01-24 01:05:00,
2013-01-23 20:10:00,63.0,54.9,30.28,East,82,0.0,0.0,75,0.00,,,0.00,Wunderground v.1.15,2013-01-24 01:10:00,
2013-01-23 20:15:00,62.8,54.8,30.28,East,82,0.0,0.0,75,0.00,,,0.00,Wunderground v.1.15,2013-01-24 01:15:00,
2013-01-23 20:21:00,62.5,54.8,30.28,East,82,0.0,0.0,76,0.00,,,0.00,Wunderground v.1.15,2013-01-24 01:21:00,
2013-01-23 20:26:00,62.4,54.7,30.28,East,82,0.0,0.0,76,0.00,,,0.00,Wunderground v.1.15,2013-01-24 01:26:00,
2013-01-23 20:31:00,62.4,54.7,30.28,East,82,0.0,0.0,76,0.00,,,0.00,Wunderground v.1.15,2013-01-24 01:31:00,
2013-01-23 20:36:00,62.5,54.8,30.28,East,82,0.0,0.0,76,0.00,,,0.00,Wunderground v.1.15,2013-01-24 01:36:00,
2013-01-23 20:41:00,62.5,54.8,30.28,East,82,0.0,0.0,76,0.00,,,0.00,Wunderground v.1.15,2013-01-24 01:41:00,
2013-01-23 20:46:00,62.4,54.7,30.28,East,82,0.0,0.0,76,0.00,,,0.00,Wunderground v.1.15,2013-01-24 01:46:00,
2013-01-23 20:51:00,62.2,54.5,30.29,East,82,0.0,0.0,76,0.00,,,0.00,Wunderground v.1.15,2013-01-24 01:51:00,
2013-01-23 20:56:00,62.0,54.7,30.28,East,82,0.0,0.0,77,0.00,,,0.00,Wunderground v.1.15,2013-01-24 01:56:00,
2013-01-23 21:01:00,61.8,54.5,30.28,East,82,0.0,0.0,77,0.00,,,0.00,Wunderground v.1.15,2013-01-24 02:01:00,
2013-01-23 21:06:00,61.5,54.2,30.29,East,82,0.0,0.0,77,0.00,,,0.00,Wunderground v.1.15,2013-01-24 02:06:00,
2013-01-23 21:11:00,61.3,54.4,30.29,East,82,0.0,0.0,78,0.00,,,0.00,Wunderground v.1.15,2013-01-24 02:11:00,
2013-01-23 21:16:00,61.3,54.4,30.29,East,82,0.0,0.0,78,0.00,,,0.00,Wunderground v.1.15,2013-01-24 02:16:00,
2013-01-23 21:21:00,61.2,54.6,30.29,East,82,0.0,0.0,79,0.00,,,0.00,Wunderground v.1.15,2013-01-24 02:21:00,
2013-01-23 21:26:00,61.1,54.5,30.29,East,82,0.0,0.0,79,0.00,,,0.00,Wunderground v.1.15,2013-01-24 02:26:00,
2013-01-23 21:31:00,60.9,54.7,30.29,East,82,0.0,0.0,80,0.00,,,0.00,Wunderground v.1.15,2013-01-24 02:31:00,
2013-01-23 21:36:00,60.9,54.7,30.29,East,82,0.0,0.0,80,0.00,,,0.00,Wunderground v.1.15,2013-01-24 02:36:00,
2013-01-23 21:41:00,60.9,54.7,30.29,East,82,0.0,0.0,80,0.00,,,0.00,Wunderground v.1.15,2013-01-24 02:41:00,
2013-01-23 21:45:00,61.0,55.1,30.29,NNE,25,0.0,2.0,81,0.00,,,0.00,Wunderground v.1.15,2013-01-24 02:45:00,
2013-01-23 21:50:00,61.7,55.8,30.29,NNE,13,0.0,1.0,81,0.00,,,0.00,Wunderground v.1.15,2013-01-24 02:50:00,
2013-01-23 21:55:00,62.2,56.6,30.29,North,8,0.0,2.0,82,0.00,,,0.00,Wunderground v.1.15,2013-01-24 02:55:00,
2013-01-23 22:00:00,62.5,56.9,30.30,NNE,24,0.0,1.0,82,0.00,,,0.00,Wunderground v.1.15,2013-01-24 03:00:00,
2013-01-23 22:05:00,62.6,57.0,30.29,NNE,29,0.0,1.0,82,0.00,,,0.00,Wunderground v.1.15,2013-01-24 03:05:00,
2013-01-23 22:10:00,62.5,56.9,30.30,NE,46,0.0,0.0,82,0.00,,,0.00,Wunderground v.1.15,2013-01-24 03:10:00,
2013-01-23 22:15:00,62.4,57.2,30.30,North,1,0.0,0.0,83,0.00,,,0.00,Wunderground v.1.15,2013-01-24 03:15:00,
2013-01-23 22:20:00,62.3,57.4,30.30,NNE,25,0.0,0.0,84,0.00,,,0.00,Wunderground v.1.15,2013-01-24 03:20:00,
2013-01-23 22:25:00,62.2,57.3,30.29,North,5,0.0,0.0,84,0.00,,,0.00,Wunderground v.1.15,2013-01-24 03:25:00,
2013-01-23 22:30:00,62.2,57.6,30.29,NNE,32,0.0,0.0,85,0.00,,,0.00,Wunderground v.1.15,2013-01-24 03:30:00,
2013-01-23 22:35:00,62.1,57.5,30.29,NNW,339,0.0,0.0,85,0.00,,,0.00,Wunderground v.1.15,2013-01-24 03:35:00,
2013-01-23 22:40:00,62.1,57.5,30.29,NNE,15,0.0,0.0,85,0.00,,,0.00,Wunderground v.1.15,2013-01-24 03:40:00,
2013-01-23 22:45:00,62.0,57.4,30.30,North,356,0.0,0.0,85,0.00,,,0.00,Wunderground v.1.15,2013-01-24 03:45:00,
2013-01-23 22:50:00,61.9,57.3,30.29,North,11,0.0,0.0,85,0.00,,,0.00,Wunderground v.1.15,2013-01-24 03:50:00,
2013-01-23 22:55:00,61.7,57.5,30.29,NNE,23,0.0,0.0,86,0.00,,,0.00,Wunderground v.1.15,2013-01-24 03:55:00,
2013-01-23 23:01:00,61.5,57.3,30.29,NNE,23,0.0,0.0,86,0.00,,,0.00,Wunderground v.1.15,2013-01-24 04:01:00,
2013-01-23 23:06:00,61.3,57.4,30.29,WSW,239,0.0,0.0,87,0.00,,,0.00,Wunderground v.1.15,2013-01-24 04:06:00,
2013-01-23 23:11:00,61.1,57.2,30.29,North,4,0.0,0.0,87,0.00,,,0.00,Wunderground v.1.15,2013-01-24 04:11:00,
2013-01-23 23:16:00,60.9,57.0,30.29,West,259,0.0,0.0,87,0.00,,,0.00,Wunderground v.1.15,2013-01-24 04:16:00,
2013-01-23 23:21:00,60.7,56.8,30.29,NNW,345,0.0,0.0,87,0.00,,,0.00,Wunderground v.1.15,2013-01-24 04:21:00,
2013-01-23 23:26:00,60.5,56.9,30.28,NNE,22,0.0,0.0,88,0.00,,,0.00,Wunderground v.1.15,2013-01-24 04:26:00,
2013-01-23 23:31:00,60.4,56.8,30.28,NNE,22,0.0,0.0,88,0.00,,,0.00,Wunderground v.1.15,2013-01-24 04:31:00,
2013-01-23 23:36:00,60.3,56.7,30.28,NNE,29,0.0,0.0,88,0.00,,,0.00,Wunderground v.1.15,2013-01-24 04:36:00,
2013-01-23 23:41:00,60.2,56.6,30.28,NE,51,0.0,0.0,88,0.00,,,0.00,Wunderground v.1.15,2013-01-24 04:41:00,
2013-01-23 23:46:00,60.2,56.6,30.27,NNE,22,0.0,0.0,88,0.00,,,0.00,Wunderground v.1.15,2013-01-24 04:46:00,
2013-01-23 23:51:00,60.2,56.6,30.27,NNE,25,0.0,0.0,88,0.00,,,0.00,Wunderground v.1.15,2013-01-24 04:51:00,
2013-01-23 23:56:00,60.2,56.6,30.27,NNE,32,0.0,0.0,88,0.00,,,0.00,Wunderground v.1.15,2013-01-24 04:56:00,